| time (UTC) | temp F | wind direction | speed MPH | gust MPH | rain 1hr in | rain 24hr in | rain mn in | humidity % | barometer mb |
| 20260508081043 | 44 | 348 | 1.0 | 6.0 | 0.00 | 0.03 | 0.00 | 68 | 1013.6 |
| 20260508080542 | 44 | 4 | 2.0 | 6.0 | 0.00 | 0.03 | 0.00 | 68 | 1013.6 |
| 20260508080042 | 44 | 30 | 1.0 | 5.0 | 0.00 | 0.03 | 0.00 | 70 | 1013.5 |
| 20260508075545 | 44 | 14 | 1.0 | 6.0 | 0.00 | 0.05 | 0.00 | 70 | 1013.5 |
| 20260508075046 | 44 | 37 | 1.0 | 4.0 | 0.00 | 0.05 | 0.00 | 70 | 1013.6 |
| 20260508074540 | 44 | 321 | 0.0 | 7.0 | 0.00 | 0.05 | 0.00 | 71 | 1013.5 |
| 20260508074039 | 44 | 101 | 1.0 | 7.0 | 0.00 | 0.05 | 0.00 | 70 | 1013.4 |
| 20260508073540 | 45 | 325 | 1.0 | 9.0 | 0.00 | 0.05 | 0.00 | 71 | 1013.5 |
| 20260508073041 | 45 | 343 | 2.0 | 10.0 | 0.00 | 0.05 | 0.00 | 71 | 1013.4 |
| 20260508072537 | 45 | 332 | 3.0 | 11.0 | 0.00 | 0.05 | 0.00 | 71 | 1013.3 |
| 20260508072037 | 45 | 283 | 4.0 | 13.0 | 0.00 | 0.05 | 0.00 | 71 | 1013.2 |
| 20260508071544 | 45 | 338 | 2.0 | 13.0 | 0.00 | 0.05 | 0.00 | 71 | 1013.3 |
| 20260508071035 | 45 | 52 | 3.0 | 14.0 | 0.00 | 0.05 | 0.00 | 71 | 1013.3 |
| 20260508070535 | 45 | 15 | 7.0 | 15.0 | 0.00 | 0.05 | 0.00 | 71 | 1013.2 |
| 20260508070035 | 45 | 19 | 7.0 | 15.0 | 0.00 | 0.05 | 0.00 | 71 | 1013.2 |
| 20260508065534 | 45 | 340 | 3.0 | 11.0 | 0.00 | 0.05 | 0.00 | 72 | 1013.3 |
| 20260508065133 | 45 | 278 | 5.0 | 11.0 | 0.00 | 0.05 | 0.00 | 73 | 1013.1 |
| 20260508064532 | 45 | 323 | 2.0 | 7.0 | 0.00 | 0.05 | 0.00 | 73 | 1013.1 |
| 20260508064031 | 45 | 349 | 1.0 | 9.0 | 0.00 | 0.05 | 0.00 | 73 | 1013.1 |
| 20260508063530 | 46 | 347 | 4.0 | 15.0 | 0.00 | 0.05 | 0.00 | 73 | 1013.0 |
| 20260508063044 | 46 | 33 | 2.0 | 15.0 | 0.00 | 0.05 | 0.00 | 73 | 1012.9 |
| 20260508062530 | 46 | 322 | 3.0 | 12.0 | 0.00 | 0.05 | 0.00 | 74 | 1012.8 |
| 20260508062029 | 46 | 315 | 4.0 | 15.0 | 0.00 | 0.05 | 0.00 | 75 | 1012.9 |
| 20260508061529 | 46 | 324 | 4.0 | 16.0 | 0.00 | 0.05 | 0.00 | 75 | 1012.8 |
| 20260508061028 | 46 | 296 | 4.0 | 13.0 | 0.00 | 0.05 | 0.00 | 76 | 1012.9 |
| 20260508060527 | 46 | 352 | 7.0 | 15.0 | 0.00 | 0.05 | 0.00 | 76 | 1012.9 |
| 20260508060034 | 46 | 348 | 7.0 | 15.0 | 0.00 | 0.05 | 0.00 | 77 | 1012.9 |
| 20260508055529 | 46 | 290 | 7.0 | 16.0 | 0.00 | 0.05 | 0.00 | 77 | 1012.9 |
| 20260508055026 | 46 | 338 | 8.0 | 17.0 | 0.00 | 0.05 | 0.00 | 78 | 1012.9 |
| 20260508054525 | 46 | 357 | 9.0 | 17.0 | 0.00 | 0.05 | 0.00 | 78 | 1012.9 |
| 20260508054023 | 46 | 339 | 7.0 | 18.0 | 0.00 | 0.05 | 0.00 | 78 | 1012.8 |
| 20260508053523 | 46 | 318 | 8.0 | 18.0 | 0.00 | 0.05 | 0.00 | 78 | 1012.7 |
| 20260508053024 | 46 | 319 | 8.0 | 16.0 | 0.00 | 0.05 | 0.00 | 78 | 1012.8 |
| 20260508052524 | 46 | 13 | 6.0 | 14.0 | 0.00 | 0.05 | 0.00 | 78 | 1012.7 |
| 20260508052021 | 47 | 326 | 5.0 | 15.0 | 0.00 | 0.05 | 0.00 | 78 | 1012.6 |
| 20260508051522 | 47 | 89 | 4.0 | 12.0 | 0.00 | 0.05 | 0.00 | 78 | 1012.5 |
| 20260508051020 | 47 | 77 | 4.0 | 12.0 | 0.00 | 0.05 | 0.00 | 78 | 1012.5 |
| 20260508050518 | 47 | 298 | 2.0 | 8.0 | 0.00 | 0.05 | 0.00 | 78 | 1012.4 |
| 20260508050019 | 47 | 58 | 2.0 | 11.0 | 0.00 | 0.05 | 0.00 | 78 | 1012.4 |
| 20260508045520 | 47 | 18 | 3.0 | 14.0 | 0.00 | 0.05 | 0.00 | 78 | 1012.2 |
| 20260508045018 | 47 | 12 | 5.0 | 16.0 | 0.00 | 0.05 | 0.00 | 79 | 1012.1 |
| 20260508044521 | 47 | 1 | 5.0 | 16.0 | 0.00 | 0.05 | 0.00 | 78 | 1012.2 |
| 20260508044016 | 48 | 335 | 7.0 | 16.0 | 0.00 | 0.05 | 0.00 | 77 | 1012.3 |
| 20260508043516 | 48 | 11 | 9.0 | 17.0 | 0.00 | 0.05 | 0.00 | 77 | 1012.4 |
| 20260508043019 | 48 | 329 | 8.0 | 17.0 | 0.00 | 0.05 | 0.00 | 77 | 1012.4 |
| 20260508042518 | 48 | 336 | 8.0 | 19.0 | 0.00 | 0.05 | 0.00 | 77 | 1012.4 |
| 20260508042013 | 48 | 335 | 12.0 | 19.0 | 0.00 | 0.05 | 0.00 | 76 | 1012.4 |
| 20260508041512 | 48 | 348 | 9.0 | 19.0 | 0.00 | 0.05 | 0.00 | 78 | 1012.4 |
| 20260508041012 | 48 | 292 | 7.0 | 20.0 | 0.00 | 0.05 | 0.00 | 78 | 1012.3 |
| 20260508040513 | 48 | 342 | 9.0 | 20.0 | 0.00 | 0.05 | 0.00 | 78 | 1012.2 |
| 20260508040009 | 47 | 16 | 8.0 | 15.0 | 0.00 | 0.05 | 0.00 | 79 | 1012.2 |
| 20260508035510 | 47 | 347 | 6.0 | 16.0 | 0.00 | 0.05 | 0.05 | 80 | 1012.4 |
| 20260508035009 | 47 | 341 | 7.0 | 14.0 | 0.00 | 0.05 | 0.05 | 79 | 1012.5 |
| 20260508034509 | 48 | 304 | 5.0 | 15.0 | 0.00 | 0.05 | 0.05 | 79 | 1012.6 |
| 20260508034008 | 48 | 322 | 7.0 | 15.0 | 0.00 | 0.05 | 0.05 | 79 | 1012.5 |
| 20260508033507 | 48 | 335 | 9.0 | 15.0 | 0.00 | 0.05 | 0.05 | 79 | 1012.5 |
| 20260508033007 | 48 | 5 | 4.0 | 15.0 | 0.00 | 0.05 | 0.05 | 79 | 1012.6 |
| 20260508032510 | 48 | 349 | 6.0 | 15.0 | 0.00 | 0.05 | 0.05 | 80 | 1012.6 |
| 20260508032006 | 48 | 328 | 5.0 | 12.0 | 0.00 | 0.05 | 0.05 | 80 | 1012.4 |
| 20260508031506 | 48 | 328 | 4.0 | 12.0 | 0.00 | 0.05 | 0.05 | 80 | 1012.4 |
| 20260508031006 | 48 | 316 | 4.0 | 12.0 | 0.00 | 0.05 | 0.05 | 80 | 1012.4 |
| 20260508030505 | 48 | 345 | 7.0 | 12.0 | 0.00 | 0.05 | 0.05 | 80 | 1012.2 |
| 20260508030006 | 47 | 316 | 3.0 | 13.0 | 0.00 | 0.05 | 0.05 | 80 | 1012.2 |
| 20260508025502 | 47 | 288 | 4.0 | 12.0 | 0.00 | 0.07 | 0.05 | 81 | 1012.1 |
| 20260508025001 | 47 | 264 | 3.0 | 12.0 | 0.00 | 0.07 | 0.05 | 81 | 1012.0 |
| 20260508024501 | 47 | 302 | 4.0 | 13.0 | 0.00 | 0.07 | 0.05 | 81 | 1012.1 |
| 20260508024001 | 47 | 345 | 3.0 | 13.0 | 0.00 | 0.07 | 0.05 | 81 | 1012.0 |
| 20260508023601 | 47 | 332 | 6.0 | 12.0 | 0.00 | 0.07 | 0.05 | 81 | 1012.1 |
| 20260508023100 | 47 | 8 | 2.0 | 8.0 | 0.00 | 0.07 | 0.05 | 81 | 1012.1 |
| 20260508022559 | 47 | 330 | 3.0 | 9.0 | 0.00 | 0.07 | 0.05 | 81 | 1012.0 |
| 20260508022201 | 47 | 322 | 2.0 | 9.0 | 0.00 | 0.07 | 0.05 | 81 | 1012.2 |
| 20260508021559 | 47 | 13 | 3.0 | 8.0 | 0.00 | 0.07 | 0.05 | 81 | 1012.0 |
| 20260508021058 | 47 | 311 | 2.0 | 8.0 | 0.00 | 0.07 | 0.05 | 80 | 1011.8 |
| 20260508020559 | 47 | 338 | 4.0 | 14.0 | 0.00 | 0.07 | 0.05 | 80 | 1011.7 |
| 20260508020105 | 48 | 229 | 2.0 | 9.0 | 0.00 | 0.07 | 0.05 | 80 | 1011.5 |
| 20260508015557 | 48 | 322 | 2.0 | 10.0 | 0.00 | 0.07 | 0.05 | 80 | 1011.4 |
| 20260508015057 | 48 | 336 | 4.0 | 19.0 | 0.00 | 0.07 | 0.05 | 79 | 1011.3 |
| 20260508014558 | 48 | 310 | 7.0 | 19.0 | 0.00 | 0.07 | 0.05 | 79 | 1011.2 |
| 20260508014056 | 48 | 4 | 6.0 | 15.0 | 0.00 | 0.07 | 0.05 | 79 | 1010.9 |
| 20260508013556 | 48 | 293 | 7.0 | 15.0 | 0.00 | 0.07 | 0.05 | 79 | 1010.9 |
| 20260508013053 | 48 | 337 | 6.0 | 15.0 | 0.00 | 0.07 | 0.05 | 79 | 1010.8 |
| 20260508012555 | 48 | 318 | 6.0 | 12.0 | 0.00 | 0.07 | 0.05 | 79 | 1010.8 |
| 20260508012051 | 48 | 352 | 4.0 | 13.0 | 0.00 | 0.07 | 0.05 | 78 | 1010.7 |
| 20260508011551 | 48 | 311 | 4.0 | 13.0 | 0.00 | 0.07 | 0.05 | 78 | 1010.8 |
| 20260508011053 | 48 | 338 | 5.0 | 11.0 | 0.00 | 0.07 | 0.05 | 78 | 1010.8 |
| 20260508010549 | 48 | 347 | 3.0 | 9.0 | 0.00 | 0.07 | 0.05 | 78 | 1010.6 |
| 20260508010050 | 48 | 304 | 2.0 | 11.0 | 0.00 | 0.07 | 0.05 | 77 | 1010.6 |
| 20260508005547 | 48 | 9 | 5.0 | 11.0 | 0.00 | 0.07 | 0.05 | 77 | 1010.6 |
| 20260508005052 | 48 | 356 | 4.0 | 9.0 | 0.00 | 0.07 | 0.05 | 77 | 1010.4 |
| 20260508004547 | 48 | 323 | 4.0 | 10.0 | 0.00 | 0.07 | 0.05 | 77 | 1010.4 |
| 20260508004046 | 48 | 283 | 4.0 | 11.0 | 0.00 | 0.07 | 0.05 | 77 | 1010.3 |
| 20260508003546 | 48 | 323 | 2.0 | 11.0 | 0.00 | 0.07 | 0.05 | 76 | 1010.2 |
| 20260508003045 | 49 | 127 | 3.0 | 15.0 | 0.00 | 0.07 | 0.05 | 76 | 1010.2 |
| 20260508002544 | 49 | 336 | 6.0 | 15.0 | 0.00 | 0.07 | 0.05 | 75 | 1010.1 |
| 20260508002044 | 49 | 105 | 5.0 | 15.0 | 0.00 | 0.07 | 0.05 | 75 | 1010.1 |
| 20260508001543 | 49 | 332 | 6.0 | 15.0 | 0.00 | 0.07 | 0.05 | 75 | 1010.2 |
| 20260508001043 | 49 | 304 | 4.0 | 13.0 | 0.00 | 0.07 | 0.05 | 76 | 1010.1 |
| 20260508000544 | 49 | 276 | 4.0 | 13.0 | 0.00 | 0.07 | 0.05 | 76 | 1010.1 |
| 20260508000045 | 49 | 315 | 6.0 | 22.0 | 0.00 | 0.07 | 0.05 | 77 | 1010.1 |
| 20260507235542 | 49 | 325 | 9.0 | 22.0 | 0.00 | 0.07 | 0.05 | 76 | 1010.0 |
| 20260507235045 | 50 | 270 | 8.0 | 20.0 | 0.00 | 0.07 | 0.05 | 75 | 1009.9 |
| 20260507234539 | 50 | 345 | 7.0 | 15.0 | 0.00 | 0.07 | 0.05 | 75 | 1009.9 |
| 20260507234038 | 50 | 354 | 6.0 | 12.0 | 0.00 | 0.07 | 0.05 | 74 | 1009.9 |
| 20260507233542 | 50 | 291 | 6.0 | 12.0 | 0.00 | 0.07 | 0.05 | 74 | 1009.9 |
| 20260507233042 | 50 | 290 | 5.0 | 12.0 | 0.00 | 0.07 | 0.05 | 74 | 1010.0 |
| 20260507232536 | 51 | 84 | 4.0 | 14.0 | 0.00 | 0.07 | 0.05 | 74 | 1010.0 |
| 20260507232037 | 51 | 294 | 4.0 | 15.0 | 0.00 | 0.07 | 0.05 | 75 | 1010.0 |
| 20260507231537 | 51 | 272 | 7.0 | 16.0 | 0.00 | 0.07 | 0.05 | 74 | 1010.0 |
| 20260507231034 | 51 | 262 | 6.0 | 16.0 | 0.00 | 0.07 | 0.05 | 75 | 1010.0 |
| 20260507230532 | 51 | 327 | 7.0 | 15.0 | 0.00 | 0.07 | 0.05 | 75 | 1010.0 |
| 20260507230031 | 51 | 284 | 5.0 | 15.0 | 0.00 | 0.07 | 0.05 | 74 | 1010.0 |
| 20260507225532 | 51 | 271 | 5.0 | 19.0 | 0.00 | 0.07 | 0.05 | 75 | 1010.0 |
| 20260507225032 | 51 | 292 | 6.0 | 19.0 | 0.00 | 0.07 | 0.05 | 75 | 1010.1 |
| 20260507224539 | 51 | 4 | 10.0 | 19.0 | 0.00 | 0.07 | 0.05 | 75 | 1009.6 |
| 20260507224030 | 52 | 302 | 7.0 | 18.0 | 0.00 | 0.07 | 0.05 | 75 | 1009.4 |
| 20260507223530 | 52 | 165 | 5.0 | 21.0 | 0.00 | 0.07 | 0.05 | 77 | 1009.5 |
| 20260507223033 | 51 | 326 | 7.0 | 21.0 | 0.00 | 0.07 | 0.05 | 77 | 1009.5 |
| 20260507222531 | 51 | 345 | 8.0 | 21.0 | 0.00 | 0.07 | 0.05 | 77 | 1009.3 |
| 20260507222030 | 52 | 34 | 9.0 | 18.0 | 0.00 | 0.07 | 0.05 | 76 | 1009.2 |
| 20260507221535 | 52 | 259 | 6.0 | 16.0 | 0.00 | 0.07 | 0.05 | 74 | 1009.1 |
| 20260507221028 | 53 | 12 | 3.0 | 12.0 | 0.00 | 0.07 | 0.05 | 75 | 1009.1 |
| 20260507220528 | 53 | 349 | 3.0 | 15.0 | 0.00 | 0.07 | 0.05 | 76 | 1009.0 |
| 20260507220029 | 53 | 318 | 7.0 | 15.0 | 0.00 | 0.07 | 0.05 | 76 | 1008.9 |
| 20260507215528 | 52 | 55 | 3.0 | 10.0 | 0.00 | 0.07 | 0.05 | 79 | 1008.8 |
| 20260507215027 | 52 | 345 | 6.0 | 15.0 | 0.00 | 0.07 | 0.05 | 82 | 1008.8 |
| 20260507214527 | 51 | 141 | 6.0 | 18.0 | 0.00 | 0.07 | 0.05 | 84 | 1008.8 |
| 20260507214026 | 52 | 316 | 9.0 | 18.0 | 0.00 | 0.07 | 0.05 | 83 | 1008.8 |
| 20260507213525 | 52 | 291 | 6.0 | 12.0 | 0.00 | 0.07 | 0.05 | 82 | 1008.7 |
| 20260507213024 | 53 | 34 | 3.0 | 18.0 | 0.00 | 0.07 | 0.05 | 83 | 1008.6 |
| 20260507212522 | 53 | 269 | 9.0 | 22.0 | 0.00 | 0.07 | 0.05 | 81 | 1008.4 |
| 20260507212021 | 54 | 323 | 8.0 | 22.0 | 0.00 | 0.07 | 0.05 | 79 | 1008.4 |
| 20260507211523 | 56 | 321 | 9.0 | 20.0 | 0.00 | 0.07 | 0.05 | 75 | 1008.2 |
| 20260507211018 | 58 | 297 | 4.0 | 11.0 | 0.00 | 0.07 | 0.05 | 72 | 1008.2 |
| 20260507210518 | 57 | 238 | 2.0 | 14.0 | 0.00 | 0.07 | 0.05 | 75 | 1008.0 |
| 20260507210018 | 57 | 231 | 6.0 | 16.0 | 0.00 | 0.07 | 0.05 | 74 | 1007.8 |
| 20260507205517 | 57 | 231 | 4.0 | 16.0 | 0.00 | 0.07 | 0.05 | 73 | 1007.6 |
| 20260507205016 | 58 | 333 | 9.0 | 20.0 | 0.00 | 0.07 | 0.05 | 72 | 1007.6 |
| 20260507204516 | 58 | 334 | 6.0 | 20.0 | 0.00 | 0.07 | 0.05 | 72 | 1007.6 |
| 20260507204015 | 60 | 342 | 6.0 | 15.0 | 0.00 | 0.07 | 0.05 | 70 | 1007.5 |
| 20260507203518 | 60 | 252 | 7.0 | 16.0 | 0.00 | 0.07 | 0.05 | 68 | 1007.6 |
| 20260507203015 | 60 | 257 | 5.0 | 16.0 | 0.00 | 0.07 | 0.05 | 68 | 1007.5 |
| 20260507202514 | 61 | 83 | 4.0 | 13.0 | 0.00 | 0.07 | 0.05 | 68 | 1007.3 |
| 20260507202016 | 60 | 234 | 2.0 | 15.0 | 0.00 | 0.07 | 0.05 | 69 | 1007.1 |
| 20260507201514 | 60 | 269 | 3.0 | 15.0 | 0.00 | 0.07 | 0.05 | 71 | 1007.2 |
| 20260507201014 | 60 | 292 | 5.0 | 12.0 | 0.00 | 0.07 | 0.05 | 70 | 1007.1 |
| 20260507200513 | 60 | 325 | 3.0 | 14.0 | 0.00 | 0.07 | 0.05 | 71 | 1007.1 |
| 20260507200013 | 61 | 23 | 3.0 | 14.0 | 0.00 | 0.07 | 0.05 | 71 | 1007.0 |
| 20260507195516 | 61 | 210 | 6.0 | 13.0 | 0.00 | 0.07 | 0.05 | 69 | 1007.2 |
| 20260507195015 | 61 | 271 | 5.0 | 15.0 | 0.00 | 0.07 | 0.05 | 70 | 1007.2 |
| 20260507194515 | 61 | 321 | 5.0 | 20.0 | 0.00 | 0.07 | 0.05 | 71 | 1007.3 |
| 20260507194012 | 60 | 247 | 4.0 | 20.0 | 0.00 | 0.07 | 0.05 | 73 | 1007.3 |
| 20260507193511 | 61 | 328 | 6.0 | 20.0 | 0.00 | 0.07 | 0.05 | 71 | 1007.2 |
| 20260507193010 | 62 | 337 | 7.0 | 20.0 | 0.00 | 0.07 | 0.05 | 68 | 1007.3 |
| 20260507192510 | 63 | 189 | 5.0 | 15.0 | 0.00 | 0.07 | 0.05 | 67 | 1007.3 |
| 20260507192010 | 63 | 139 | 5.0 | 14.0 | 0.00 | 0.07 | 0.05 | 66 | 1007.3 |
| 20260507191510 | 64 | 293 | 5.0 | 14.0 | 0.00 | 0.07 | 0.05 | 65 | 1007.4 |
| 20260507191009 | 64 | 194 | 4.0 | 12.0 | 0.00 | 0.07 | 0.05 | 64 | 1007.4 |
| 20260507190510 | 65 | 125 | 5.0 | 21.0 | 0.00 | 0.07 | 0.05 | 65 | 1007.5 |
| 20260507190010 | 64 | 118 | 3.0 | 21.0 | 0.00 | 0.07 | 0.05 | 66 | 1007.6 |
| 20260507185509 | 66 | 321 | 4.0 | 11.0 | 0.00 | 0.07 | 0.05 | 62 | 1007.6 |
| 20260507185009 | 67 | 258 | 5.0 | 11.0 | 0.00 | 0.07 | 0.05 | 62 | 1007.6 |
| 20260507184508 | 67 | 288 | 2.0 | 9.0 | 0.00 | 0.07 | 0.05 | 64 | 1007.7 |
| 20260507184008 | 66 | 221 | 3.0 | 9.0 | 0.00 | 0.07 | 0.05 | 64 | 1007.7 |
| 20260507183509 | 65 | 204 | 2.0 | 16.0 | 0.00 | 0.07 | 0.05 | 66 | 1007.6 |
| 20260507183011 | 64 | 141 | 6.0 | 16.0 | 0.00 | 0.07 | 0.05 | 68 | 1007.7 |
| 20260507182507 | 65 | 328 | 3.0 | 16.0 | 0.00 | 0.07 | 0.05 | 66 | 1007.7 |
| 20260507182007 | 65 | 206 | 6.0 | 16.0 | 0.00 | 0.07 | 0.05 | 65 | 1007.7 |
| 20260507181506 | 65 | 39 | 2.0 | 10.0 | 0.00 | 0.07 | 0.05 | 69 | 1007.7 |
| 20260507181009 | 65 | 40 | 5.0 | 13.0 | 0.00 | 0.07 | 0.05 | 67 | 1007.7 |
| 20260507180506 | 65 | 157 | 5.0 | 15.0 | 0.00 | 0.07 | 0.05 | 68 | 1007.5 |
| 20260507180009 | 65 | 290 | 7.0 | 15.0 | 0.00 | 0.07 | 0.05 | 67 | 1007.3 |
| 20260507175505 | 67 | 338 | 6.0 | 13.0 | 0.00 | 0.07 | 0.05 | 65 | 1007.3 |
| 20260507175005 | 67 | 328 | 4.0 | 13.0 | 0.00 | 0.07 | 0.05 | 62 | 1007.2 |
| 20260507174505 | 68 | 46 | 4.0 | 12.0 | 0.00 | 0.07 | 0.05 | 61 | 1007.3 |
| 20260507174004 | 68 | 18 | 4.0 | 12.0 | 0.00 | 0.07 | 0.05 | 61 | 1007.5 |
| 20260507173505 | 68 | 282 | 4.0 | 10.0 | 0.00 | 0.07 | 0.05 | 60 | 1007.5 |
| 20260507173010 | 68 | 101 | 2.0 | 11.0 | 0.00 | 0.07 | 0.05 | 62 | 1007.5 |
| 20260507172503 | 68 | 153 | 3.0 | 12.0 | 0.00 | 0.07 | 0.05 | 62 | 1007.2 |
| 20260507172003 | 68 | 349 | 4.0 | 12.0 | 0.00 | 0.07 | 0.05 | 61 | 1007.2 |
| 20260507171508 | 69 | 293 | 2.0 | 6.0 | 0.00 | 0.07 | 0.05 | 62 | 1007.3 |
| 20260507171003 | 68 | 278 | 2.0 | 14.0 | 0.00 | 0.07 | 0.05 | 63 | 1007.2 |
| 20260507170503 | 68 | 217 | 6.0 | 14.0 | 0.00 | 0.07 | 0.05 | 62 | 1007.3 |
| 20260507170003 | 68 | 327 | 4.0 | 11.0 | 0.00 | 0.07 | 0.05 | 61 | 1007.4 |
| 20260507165501 | 68 | 156 | 2.0 | 8.0 | 0.00 | 0.07 | 0.05 | 62 | 1007.3 |
| 20260507165001 | 67 | 243 | 2.0 | 8.0 | 0.00 | 0.07 | 0.05 | 63 | 1007.3 |
| 20260507164607 | 67 | 321 | 3.0 | 8.0 | 0.00 | 0.07 | 0.05 | 62 | 1007.5 |
| 20260507164100 | 67 | 144 | 3.0 | 8.0 | 0.00 | 0.07 | 0.05 | 64 | 1007.6 |
| 20260507163600 | 66 | 311 | 3.0 | 10.0 | 0.00 | 0.07 | 0.05 | 68 | 1007.6 |
| 20260507163059 | 67 | 326 | 4.0 | 10.0 | 0.00 | 0.07 | 0.05 | 67 | 1007.7 |
| 20260507162659 | 66 | 226 | 2.0 | 8.0 | 0.00 | 0.07 | 0.05 | 69 | 1007.6 |
| 20260507162057 | 66 | 248 | 1.0 | 7.0 | 0.00 | 0.07 | 0.05 | 69 | 1007.7 |
| 20260507161601 | 67 | 217 | 1.0 | 7.0 | 0.00 | 0.07 | 0.05 | 70 | 1007.6 |
| 20260507161058 | 66 | 230 | 2.0 | 5.0 | 0.00 | 0.07 | 0.05 | 70 | 1007.7 |
| 20260507160558 | 66 | 300 | 0.0 | 7.0 | 0.00 | 0.07 | 0.05 | 73 | 1007.8 |
| 20260507160059 | 66 | 267 | 1.0 | 7.0 | 0.00 | 0.07 | 0.05 | 71 | 1007.6 |
| 20260507155557 | 66 | 327 | 3.0 | 8.0 | 0.00 | 0.07 | 0.05 | 69 | 1007.6 |
| 20260507155106 | 68 | 347 | 4.0 | 8.0 | 0.00 | 0.07 | 0.05 | 66 | 1007.5 |
| 20260507154600 | 69 | 27 | 1.0 | 6.0 | 0.00 | 0.07 | 0.05 | 69 | 1007.5 |
| 20260507154057 | 68 | 208 | 1.0 | 7.0 | 0.00 | 0.07 | 0.05 | 69 | 1007.5 |
| 20260507153554 | 66 | 213 | 2.0 | 7.0 | 0.00 | 0.07 | 0.05 | 73 | 1007.6 |
| 20260507153056 | 65 | 157 | 0.0 | 5.0 | 0.00 | 0.07 | 0.05 | 81 | 1007.6 |
| 20260507152558 | 63 | 297 | 2.0 | 5.0 | 0.00 | 0.07 | 0.05 | 80 | 1007.8 |
| 20260507152054 | 64 | 349 | 1.0 | 4.0 | 0.00 | 0.07 | 0.05 | 78 | 1007.7 |
| 20260507151553 | 65 | 15 | 1.0 | 6.0 | 0.00 | 0.07 | 0.05 | 77 | 1007.7 |
| 20260507151053 | 65 | 224 | 2.0 | 10.0 | 0.00 | 0.07 | 0.05 | 76 | 1007.6 |
| 20260507150554 | 66 | 231 | 3.0 | 10.0 | 0.00 | 0.07 | 0.05 | 75 | 1007.6 |
| 20260507150053 | 67 | 179 | 1.0 | 4.0 | 0.00 | 0.07 | 0.05 | 72 | 1007.6 |
| 20260507145551 | 66 | 158 | 2.0 | 4.0 | 0.00 | 0.07 | 0.05 | 75 | 1007.6 |
| 20260507145050 | 65 | 248 | 0.0 | 4.0 | 0.00 | 0.07 | 0.05 | 78 | 1007.8 |
| 20260507144549 | 66 | 224 | 0.0 | 5.0 | 0.00 | 0.07 | 0.05 | 81 | 1007.9 |
| 20260507144048 | 64 | 168 | 1.0 | 6.0 | 0.00 | 0.07 | 0.05 | 81 | 1008.0 |
| 20260507143550 | 64 | 204 | 2.0 | 6.0 | 0.00 | 0.07 | 0.05 | 79 | 1007.9 |
| 20260507143052 | 65 | 240 | 0.0 | 3.0 | 0.00 | 0.07 | 0.05 | 82 | 1007.9 |
| 20260507142546 | 64 | 235 | 0.0 | 1.0 | 0.00 | 0.07 | 0.05 | 87 | 1008.1 |
| 20260507142044 | 63 | 235 | 0.0 | 2.0 | 0.00 | 0.07 | 0.05 | 87 | 1008.2 |
| 20260507141551 | 63 | 205 | 0.0 | 1.0 | 0.00 | 0.07 | 0.05 | 88 | 1008.1 |
| 20260507141044 | 63 | 205 | 0.0 | 1.0 | 0.00 | 0.07 | 0.05 | 88 | 1008.4 |
| 20260507140545 | 63 | 205 | 0.0 | 0.0 | 0.00 | 0.07 | 0.05 | 89 | 1008.2 |
| 20260507140044 | 62 | 205 | 0.0 | 2.0 | 0.00 | 0.07 | 0.05 | 89 | 1008.3 |
| 20260507135544 | 62 | 205 | 0.0 | 2.0 | 0.00 | 0.07 | 0.05 | 89 | 1008.1 |
| 20260507135042 | 62 | 209 | 1.0 | 2.0 | 0.00 | 0.07 | 0.05 | 93 | 1008.0 |
| 20260507134540 | 61 | 343 | 0.0 | 1.0 | 0.00 | 0.07 | 0.05 | 95 | 1008.1 |
| 20260507134038 | 60 | 343 | 0.0 | 1.0 | 0.00 | 0.07 | 0.05 | 94 | 1008.0 |
| 20260507133538 | 60 | 343 | 0.0 | 2.0 | 0.00 | 0.07 | 0.05 | 94 | 1008.3 |
| 20260507133055 | 59 | 343 | 1.0 | 2.0 | 0.00 | 0.07 | 0.05 | 93 | 1008.3 |
| 20260507132539 | 60 | 351 | 0.0 | 2.0 | 0.00 | 0.07 | 0.05 | 93 | 1008.3 |
| 20260507132038 | 60 | 120 | 0.0 | 1.0 | 0.00 | 0.07 | 0.05 | 94 | 1008.2 |
| 20260507131548 | 60 | 120 | 0.0 | 0.0 | 0.00 | 0.07 | 0.05 | 95 | 1008.1 |
| 20260507131036 | 60 | 120 | 0.0 | 1.0 | 0.00 | 0.07 | 0.05 | 95 | 1008.4 |
| 20260507130535 | 60 | 120 | 0.0 | 1.0 | 0.00 | 0.07 | 0.05 | 96 | 1008.4 |
| 20260507130042 | 59 | 120 | 0.0 | 1.0 | 0.00 | 0.07 | 0.05 | 96 | 1008.3 |
| 20260507125534 | 59 | 120 | 0.0 | 1.0 | 0.00 | 0.07 | 0.05 | 96 | 1008.3 |
| 20260507125032 | 58 | 120 | 0.0 | 1.0 | 0.00 | 0.07 | 0.05 | 96 | 1008.3 |
| 20260507124533 | 58 | 120 | 0.0 | 1.0 | 0.00 | 0.07 | 0.05 | 96 | 1008.7 |
| 20260507124029 | 58 | 120 | 0.0 | 1.0 | 0.00 | 0.07 | 0.05 | 96 | 1008.6 |
| 20260507123529 | 57 | 120 | 0.0 | 1.0 | 0.00 | 0.07 | 0.05 | 96 | 1008.6 |
| 20260507123031 | 57 | 120 | 0.0 | 1.0 | 0.00 | 0.07 | 0.05 | 96 | 1008.5 |
| 20260507122529 | 57 | 120 | 0.0 | 1.0 | 0.00 | 0.07 | 0.05 | 96 | 1008.9 |
| 20260507122030 | 56 | 120 | 0.0 | 1.0 | 0.00 | 0.07 | 0.05 | 96 | 1009.0 |
| 20260507121529 | 56 | 120 | 0.0 | 1.0 | 0.00 | 0.07 | 0.05 | 96 | 1009.2 |
| 20260507121028 | 56 | 120 | 0.0 | 1.0 | 0.00 | 0.07 | 0.05 | 96 | 1009.2 |
| 20260507120528 | 56 | 120 | 0.0 | 0.0 | 0.00 | 0.07 | 0.05 | 96 | 1009.2 |
| 20260507120028 | 56 | 120 | 0.0 | 0.0 | 0.00 | 0.07 | 0.05 | 96 | 1009.3 |
| 20260507115528 | 56 | 120 | 0.0 | 0.0 | 0.00 | 0.07 | 0.05 | 95 | 1009.4 |
| 20260507115031 | 56 | 120 | 0.0 | 0.0 | 0.01 | 0.07 | 0.05 | 95 | 1009.4 |
| 20260507114527 | 56 | 120 | 0.0 | 0.0 | 0.01 | 0.07 | 0.05 | 95 | 1009.4 |
| 20260507114026 | 56 | 120 | 0.0 | 0.0 | 0.01 | 0.07 | 0.05 | 95 | 1009.4 |
| 20260507113527 | 56 | 120 | 0.0 | 0.0 | 0.01 | 0.07 | 0.05 | 95 | 1009.3 |
| 20260507113026 | 56 | 120 | 0.0 | 0.0 | 0.01 | 0.07 | 0.05 | 95 | 1009.2 |
| 20260507112529 | 56 | 120 | 0.0 | 0.0 | 0.02 | 0.07 | 0.05 | 95 | 1009.2 |
| 20260507112026 | 56 | 120 | 0.0 | 1.0 | 0.03 | 0.07 | 0.05 | 95 | 1008.9 |
| 20260507111526 | 56 | 120 | 0.0 | 2.0 | 0.03 | 0.07 | 0.05 | 95 | 1009.0 |
| 20260507111025 | 56 | 120 | 0.0 | 2.0 | 0.03 | 0.07 | 0.05 | 95 | 1008.7 |
| 20260507110526 | 56 | 96 | 0.0 | 2.0 | 0.03 | 0.07 | 0.05 | 95 | 1008.7 |
| 20260507110026 | 56 | 96 | 0.0 | 2.0 | 0.03 | 0.07 | 0.05 | 95 | 1009.0 |
| 20260507105526 | 56 | 96 | 1.0 | 2.0 | 0.03 | 0.07 | 0.05 | 95 | 1008.6 |
| 20260507105028 | 56 | 356 | 0.0 | 1.0 | 0.02 | 0.06 | 0.04 | 95 | 1008.9 |
| 20260507104524 | 56 | 356 | 0.0 | 1.0 | 0.02 | 0.06 | 0.04 | 95 | 1008.9 |
| 20260507104024 | 56 | 356 | 0.0 | 1.0 | 0.02 | 0.06 | 0.04 | 95 | 1008.8 |
| 20260507103522 | 56 | 356 | 0.0 | 1.0 | 0.02 | 0.06 | 0.04 | 95 | 1008.6 |
| 20260507103023 | 56 | 356 | 0.0 | 3.0 | 0.02 | 0.06 | 0.04 | 95 | 1008.4 |
| 20260507102522 | 56 | 356 | 1.0 | 3.0 | 0.01 | 0.05 | 0.03 | 95 | 1008.5 |
| 20260507102023 | 56 | 228 | 0.0 | 2.0 | 0.00 | 0.04 | 0.02 | 95 | 1008.6 |
| 20260507101522 | 56 | 202 | 0.0 | 3.0 | 0.00 | 0.04 | 0.02 | 95 | 1008.7 |
| 20260507101023 | 56 | 255 | 1.0 | 2.0 | 0.00 | 0.04 | 0.02 | 95 | 1008.9 |
| 20260507100522 | 56 | 134 | 0.0 | 1.0 | 0.00 | 0.04 | 0.02 | 95 | 1008.6 |
| 20260507100022 | 56 | 134 | 0.0 | 1.0 | 0.00 | 0.04 | 0.02 | 95 | 1008.5 |
| 20260507095522 | 56 | 245 | 0.0 | 2.0 | 0.00 | 0.04 | 0.02 | 95 | 1008.6 |
| 20260507095022 | 56 | 245 | 0.0 | 2.0 | 0.00 | 0.04 | 0.02 | 95 | 1008.7 |
| 20260507094521 | 56 | 346 | 0.0 | 1.0 | 0.00 | 0.04 | 0.02 | 95 | 1008.7 |
| 20260507094021 | 56 | 346 | 0.0 | 1.0 | 0.00 | 0.04 | 0.02 | 95 | 1008.8 |
| 20260507093521 | 56 | 346 | 0.0 | 1.0 | 0.00 | 0.04 | 0.02 | 95 | 1008.7 |
| 20260507093025 | 56 | 346 | 0.0 | 1.0 | 0.00 | 0.04 | 0.02 | 95 | 1008.8 |
| 20260507092521 | 56 | 346 | 0.0 | 1.0 | 0.00 | 0.04 | 0.02 | 95 | 1008.7 |
| 20260507092020 | 56 | 346 | 0.0 | 1.0 | 0.00 | 0.04 | 0.02 | 95 | 1008.6 |
| 20260507091529 | 56 | 346 | 0.0 | 1.0 | 0.00 | 0.04 | 0.02 | 95 | 1008.6 |
| 20260507091021 | 56 | 346 | 0.0 | 0.0 | 0.00 | 0.04 | 0.02 | 95 | 1008.7 |
| 20260507090523 | 56 | 346 | 0.0 | 0.0 | 0.00 | 0.04 | 0.02 | 95 | 1008.7 |
| 20260507090023 | 56 | 346 | 0.0 | 0.0 | 0.00 | 0.04 | 0.02 | 95 | 1008.6 |
| 20260507085519 | 56 | 346 | 0.0 | 1.0 | 0.00 | 0.04 | 0.02 | 95 | 1008.6 |
| 20260507085018 | 56 | 346 | 0.0 | 2.0 | 0.00 | 0.04 | 0.02 | 95 | 1008.5 |
| 20260507084517 | 56 | 346 | 1.0 | 2.0 | 0.00 | 0.04 | 0.02 | 95 | 1008.4 |
| 20260507084017 | 56 | 346 | 1.0 | 2.0 | 0.00 | 0.04 | 0.02 | 95 | 1008.6 |
| 20260507083516 | 56 | 346 | 1.0 | 2.0 | 0.00 | 0.04 | 0.02 | 95 | 1008.6 |
| 20260507083016 | 57 | 346 | 0.0 | 1.0 | 0.00 | 0.04 | 0.02 | 95 | 1008.7 |
| 20260507082516 | 57 | 346 | 0.0 | 1.0 | 0.00 | 0.04 | 0.02 | 95 | 1008.7 |
| 20260507082015 | 57 | 346 | 0.0 | 1.0 | 0.00 | 0.04 | 0.02 | 95 | 1008.9 |
| 20260507081516 | 57 | 346 | 0.0 | 1.0 | 0.00 | 0.04 | 0.02 | 95 | 1008.9 |